Regional Weather Roundup
Issued by NWS

Home | Current Version | Previous Version | Text Only | Print | Product List | Glossary Off
Versions: 1 2 3 4 5 6 7 8 9 10 11 12 13 14 15 16 17 18 19 20 21 22 23 24 25 26 27 28 29 30 31 32 33 34 35 36 37 38 39 40 41 42 43 44 45 46 47 48 49 50

000
ASUS45 KCYS 230810
RWRWY

WYOMING REGIONAL WEATHER ROUNDUP
NATIONAL WEATHER SERVICE CHEYENNE WY
200 AM MDT SAT SEP 23 2017

NOTE:  "FAIR" INDICATES FEW OR NO CLOUDS BELOW 12,000 FEET
WITH NO SIGNIFICANT WEATHER AND/OR OBSTRUCTIONS TO VISIBILITY.

WYZ001-230900-
YELLOWSTONE NATIONAL PARK

CITY           SKY/WX    TMP DP  RH WIND       PRES   REMARKS
LK YELLOWSTONE NOT AVBL
W YELLOWSTONE  NOT AVBL

$$
WYZ002>013-054>058-071-098>099-230900-
NORTHERN WYOMING

CITY           SKY/WX    TMP DP  RH WIND       PRES   REMARKS
JACKSON        CLOUDY    33  32  96 N5        30.01R WCI  29
CODY           CLOUDY    36  35  96 NE6       30.04S WCI  31
GREYBULL       CLOUDY    41  41 100 W3        30.03R
WORLAND        CLOUDY    41  40  96 CALM      30.03R
SHERIDAN       CLOUDY    41  40  96 E5        30.05R
BUFFALO        LGT RAIN  39  34  82 CALM      30.07R
GILLETTE       MOCLDY    38  35  89 N5        30.04R WCI  34
HULETT         CLOUDY    39  36  87 NE5       30.04F
NEWCASTLE      CLOUDY    41  39  93 S3        30.02R

$$
WYZ014>020-022>026-101>103-230900-
CENTRAL WYOMING

CITY           SKY/WX    TMP DP  RH WIND       PRES   REMARKS
BIG PINEY      MOCLDY    32  32 100 NW3       30.01S
PINEDALE       CLOUDY    34  32  93 W6        30.01R WCI  29
DUBOIS         CLOUDY    32  32 100 NW6       29.99R WCI  26
LANDER           N/A    N/A N/A N/A MISG      30.00R
RIVERTON       LGT RAIN  39  39 100 N6        30.00S WCI  35
CASPER         CLOUDY    41  37  86 N14       30.01R
DOUGLAS        CLOUDY    44  42  93 N3        30.02R

$$
WYZ021-027>030-104>119-230900-
SOUTHERN WYOMING

CITY           SKY/WX    TMP DP  RH WIND       PRES   REMARKS
EVANSTON       CLOUDY    34  31  88 NW7       29.99S WCI  28
KEMMERER         N/A     34  32  93 NW3       30.00S
FORT BRIDGER   CLOUDY    37  37 100 S6        30.03R WCI  32
ROCK SPRINGS   CLOUDY    36  33  89 S3        30.01R
DIXON          CLOUDY    41  35  77 N14G23    30.01S
RAWLINS        CLOUDY    40  36  86 SW6       29.99R
SARATOGA       FAIR      39  39 100 W5        30.02R
LARAMIE        FAIR      38  35  89 CALM      29.99S
CHEYENNE       FAIR      43  37  79 N7        30.00R
TORRINGTON     FAIR      45  38  76 NE7       29.98F
PINE BLUFFS    FAIR      45  37  76 NE12      29.98R

$$



USA.gov is the U.S. government's official web portal to all federal, state and local government web resources and services.